Theta_e
321 322 322 322 321 321 322 322 322 322 322 323 323 324 323 323 322 325 318 324 324 338 328 319 319 319 319 317 319 322 310 307 308 309 311 319 318 323 328 321 327 336 333 340 343
321 322 322 322 321 321 321 321 321 322 322 322 323 323 322 322 322 322 332 342 339 340 317 316 314 316 315 317 320 315 310 309 313 313 312 318 321 322 328 325 329 334 339 341 343
321 321 321 321 321 320 320 320 321 321 321 322 322 322 321 322 320 322 341 342 341 334 318 318 320 318 315 318 317 316 310 313 315 317 317 318 325 326 328 327 331 331 335 340 338
321 321 321 321 321 320 320 320 320 321 321 321 321 321 321 323 310 321 343 343 340 320 318 317 317 315 313 313 317 311 315 314 319 320 320 320 329 327 330 331 336 337 339 334 331
320 320 320 320 320 319 319 319 320 320 320 320 321 321 322 320 319 326 343 338 323 317 317 316 315 315 311 313 315 312 314 314 320 321 324 328 328 328 329 335 337 337 335 331 329
319 319 319 319 319 319 318 318 318 318 319 321 322 320 319 311 322 324 322 323 320 317 317 319 317 317 314 313 312 316 315 314 319 320 323 325 328 332 334 335 332 331 329 328 328
319 319 319 318 319 318 318 318 317 318 320 325 323 322 320 318 323 321 321 319 320 320 318 321 320 316 316 312 316 314 310 313 316 322 326 322 315 311 333 333 328 324 325 326 327
319 318 318 318 318 318 318 317 317 319 323 323 323 323 316 324 325 319 320 319 322 322 320 322 321 317 315 317 314 310 310 307 315 325 320 318 308 316 330 328 324 324 324 325 326
319 318 318 318 318 318 317 316 317 322 326 323 327 324 317 324 319 320 320 317 319 320 320 321 318 314 314 310 308 309 304 309 313 320 319 315 308 316 322 325 322 321 323 324 324
319 317 317 317 317 316 315 316 325 322 323 326 324 317 322 315 318 320 321 320 317 317 316 315 312 310 311 309 302 306 307 309 311 316 316 311 309 316 325 324 320 320 322 323 324
319 317 316 316 316 315 315 320 316 318 319 313 314 315 317 319 321 318 320 318 317 315 308 312 308 306 310 312 312 310 309 310 315 318 315 316 314 322 325 323 320 320 321 322 324
318 317 317 316 316 315 318 314 312 315 308 316 316 316 317 321 313 315 320 312 312 308 312 311 307 313 315 313 310 310 309 310 315 317 315 314 314 318 324 323 320 319 320 322 324
317 316 316 315 314 315 316 312 319 320 310 313 315 312 315 318 313 314 317 314 312 310 310 309 311 314 311 310 309 310 310 312 311 315 317 312 310 311 318 320 322 323 324 325 325
316 316 316 314 314 316 314 316 319 322 306 307 309 313 315 315 312 319 318 316 313 309 312 311 314 311 310 309 310 307 313 311 310 308 304 315 300 305 315 313 319 323 323 324 325
316 316 315 314 317 313 316 319 318 319 298 310 309 320 317 311 314 314 320 317 311 312 312 309 310 309 309 310 312 309 314 311 309 307 308 308 306 309 313 306 313 323 324 323 325
316 316 314 318 317 317 319 319 317 304 298 306 311 310 309 311 313 315 315 318 317 313 313 312 315 313 313 313 312 314 311 311 311 309 301 307 306 310 310 313 317 322 325 326 324
316 315 314 318 312 321 320 315 303 298 310 304 307 309 308 307 309 310 310 309 308 305 306 310 310 313 314 310 314 312 309 302 301 301 299 311 309 308 317 319 321 322 323 321 322
313 312 317 321 322 321 318 309 297 307 307 309 308 308 305 308 308 309 308 306 311 311 308 305 302 310 313 312 310 310 308 301 295 296 299 311 305 309 319 323 324 323 322 321 318
310 320 320 323 324 323 312 301 301 306 311 306 306 303 304 308 308 308 308 307 310 314 308 308 306 314 314 314 313 310 308 312 305 306 301 306 310 316 317 317 320 320 319 317 317
315 316 316 324 326 319 308 300 307 312 313 311 303 305 301 305 305 306 307 313 312 314 317 315 306 312 313 314 314 312 314 304 306 298 295 304 306 305 312 314 316 316 315 315 316
315 312 321 326 324 313 302 304 310 311 313 310 307 305 306 305 308 308 309 313 314 313 315 314 312 309 312 309 309 310 309 310 309 305 299 296 302 314 313 314 314 314 314 314 314
315 307 323 324 308 309 306 308 304 309 314 313 313 311 308 308 307 308 310 312 315 315 309 315 314 306 308 314 314 312 309 309 302 302 304 301 303 316 315 315 314 313 314 314 313
312 311 323 322 302 304 310 308 309 307 312 312 310 313 312 309 307 311 312 314 314 315 314 315 310 303 305 310 312 309 309 309 310 311 305 301 304 317 316 314 314 312 312 312 312
311 305 311 316 311 308 310 307 306 311 311 315 314 314 311 310 314 311 311 313 315 313 320 324 313 308 303 307 311 307 306 308 309 304 304 306 307 309 311 310 311 310 312 311 312
311 308 311 305 306 308 312 309 305 306 313 314 312 312 311 310 311 310 312 312 312 314 316 319 308 308 308 309 309 306 305 307 305 307 303 305 306 308 310 310 309 311 312 311 311
309 307 313 310 315 309 307 308 307 309 312 310 311 312 313 312 312 310 312 312 310 314 315 318 308 309 304 307 307 305 307 307 307 306 306 309 305 311 311 310 309 311 311 309 309
314 317 312 310 309 310 310 309 309 312 314 316 315 314 312 314 318 320 321 321 317 315 314 314 311 308 302 306 306 303 306 307 308 308 307 303 306 309 307 307 310 309 309 307 308
Wind_Speed
15 15 16 17 18 18 19 20 19 19 18 19 17 14 13 15 20 7 10 2 6 15 4 12 12 12 12 17 18 14 10 11 12 10 10 9 15 14 22 21 10 15 10 10 9
16 16 17 18 19 19 19 20 20 19 18 19 16 14 12 12 8 14 5 9 12 13 10 15 12 12 12 15 12 12 12 14 10 9 11 10 13 14 19 8 9 17 14 15 24
15 17 18 18 19 20 21 20 20 20 19 19 16 13 10 10 8 7 8 9 8 7 15 20 8 11 14 13 12 13 6 8 5 9 7 7 16 14 16 14 15 19 14 25 20
15 17 17 19 20 20 20 22 21 21 20 18 14 9 6 5 3 9 11 7 6 6 14 19 11 12 16 12 15 8 4 6 7 3 9 10 16 14 15 14 13 17 22 26 21
16 18 20 21 23 23 22 21 21 21 19 17 10 4 3 7 9 13 11 8 9 9 16 13 11 14 15 10 9 9 2 2 2 1 8 11 16 14 17 15 20 22 21 22 18
14 16 19 22 23 23 22 21 20 20 18 13 4 2 3 7 14 16 14 13 12 15 20 15 10 6 8 12 5 8 5 5 5 8 4 16 17 14 15 16 18 20 17 18 16
17 19 20 22 22 24 24 21 20 19 16 9 3 3 7 14 13 13 15 15 15 18 12 10 10 10 7 10 9 4 10 10 11 8 13 13 13 22 15 17 19 19 17 18 18
17 18 20 23 25 26 25 21 20 17 12 3 6 0 8 3 2 14 14 16 13 6 11 10 5 12 14 14 4 11 13 15 12 20 10 18 6 17 7 19 18 17 16 15 17
17 19 20 24 25 28 27 23 19 8 8 5 5 3 9 4 9 11 13 14 9 10 10 8 7 11 17 15 12 12 14 18 12 16 11 13 3 28 24 24 16 13 14 14 15
17 20 22 24 26 29 28 21 1 3 9 9 6 7 7 10 11 14 15 14 9 9 10 11 8 13 15 14 14 15 14 12 15 14 29 16 10 30 17 19 15 12 13 11 12
17 19 23 24 27 29 18 7 5 6 7 12 3 13 6 8 6 11 11 8 10 10 12 15 12 17 19 18 11 14 10 5 6 6 8 9 14 18 15 18 16 11 11 10 9
17 19 23 25 26 27 14 9 8 6 10 14 18 14 14 9 9 12 14 11 12 13 17 15 16 18 2 8 9 11 13 3 6 2 6 26 22 22 3 16 13 13 10 9 8
16 19 22 26 29 11 12 11 13 8 6 10 15 12 11 14 11 14 17 19 15 16 19 16 4 9 3 5 11 12 9 3 9 3 8 12 11 10 15 33 7 8 11 11 11
16 18 21 25 6 13 5 13 14 7 6 10 13 9 14 15 17 15 17 15 10 19 12 13 10 2 5 11 6 12 9 4 9 8 11 9 8 6 7 12 8 14 8 3 3
16 17 18 8 10 7 9 11 15 4 7 18 17 10 9 15 9 16 17 13 17 13 10 6 7 5 11 4 9 10 10 8 12 13 11 9 5 1 7 9 15 10 8 13 7
15 16 15 5 6 11 12 12 8 5 7 9 10 12 13 18 14 14 11 13 14 18 10 5 3 8 5 6 3 9 8 13 12 12 11 6 3 6 9 17 12 13 12 10 4
16 19 11 10 7 11 9 7 4 8 11 9 15 17 13 12 11 15 15 15 9 6 10 6 8 7 2 8 8 8 11 10 9 6 6 9 15 12 6 13 12 12 11 14 12
18 21 11 10 8 7 7 4 5 11 5 7 11 17 17 15 14 13 16 14 16 16 9 9 11 10 9 11 9 3 7 7 12 11 11 7 8 5 15 14 19 14 13 11 12
24 10 11 12 5 3 4 6 6 17 12 1 13 9 13 11 8 12 15 14 14 11 8 9 6 11 4 2 5 7 6 9 8 14 8 15 19 18 10 12 17 15 15 12 8
9 10 13 7 4 5 4 6 10 8 9 8 8 13 11 10 9 11 13 2 3 5 5 9 4 6 10 4 9 5 8 6 3 6 7 12 13 6 11 12 10 14 11 11 12
7 7 7 9 4 5 8 14 11 11 8 8 10 12 10 9 13 15 11 8 2 5 10 10 2 5 6 7 6 1 7 5 6 5 5 8 8 9 9 10 11 13 13 14 13
6 7 11 8 5 7 11 15 2 11 12 9 8 10 5 13 14 14 13 6 3 10 5 5 5 7 11 8 6 6 8 7 5 10 9 8 6 8 8 9 8 10 12 13 15
7 11 9 8 6 9 13 12 10 12 14 5 6 8 9 8 7 8 12 6 3 3 6 4 3 6 6 7 3 4 7 4 1 4 6 7 7 6 8 13 14 13 14 14 16
7 5 8 8 10 11 12 10 11 14 11 9 11 9 6 11 3 7 12 4 8 8 5 4 2 5 6 8 8 4 5 6 5 5 7 11 14 12 12 11 12 12 14 14 13
6 7 9 7 11 12 10 8 8 13 9 5 8 8 11 6 8 7 12 11 7 3 2 3 3 5 1 2 7 7 6 8 8 7 8 7 14 11 10 10 11 11 10 13 14
6 9 10 9 10 10 9 8 12 14 3 9 10 12 12 8 10 8 13 8 5 5 4 1 2 2 4 4 8 9 6 5 9 11 7 16 13 9 11 11 9 13 14 14 14
7 12 5 10 11 9 10 12 11 5 6 8 9 13 12 13 2 12 13 9 9 5 3 2 4 6 7 7 7 8 6 5 11 10 11 10 9 10 10 8 14 13 12 11 10
Wind_Direction
346 338 337 333 330 324 320 317 316 317 315 306 307 307 318 319 303 220 254 289 178 172 120 248 222 236 244 252 245 278 280 286 52 10 42 23 13 43 97 92 304 89 143 125 190
341 339 332 331 327 324 319 316 317 315 312 304 305 308 322 329 280 254 156 148 139 157 214 218 204 205 226 241 240 240 269 53 34 34 344 68 49 339 55 62 128 109 108 43 40
338 335 331 325 323 322 317 315 319 315 312 305 306 309 325 314 275 173 162 147 150 189 252 289 213 206 235 237 240 251 340 9 66 44 298 55 63 27 65 59 42 63 60 59 46
334 328 325 325 320 318 318 317 317 311 311 305 303 309 328 256 328 126 161 142 123 236 263 263 247 216 252 227 237 270 116 323 34 42 22 86 89 81 88 82 70 67 65 63 56
329 328 326 326 324 320 317 317 314 310 311 302 295 327 260 235 248 139 143 144 174 224 251 227 226 228 247 211 226 256 226 248 133 342 114 78 89 91 88 87 76 72 75 78 73
327 325 326 324 322 316 314 316 315 312 309 294 277 119 278 262 107 151 165 178 198 214 245 249 243 294 307 280 212 257 224 231 224 175 170 126 105 98 84 88 85 80 81 82 88
331 330 326 322 319 314 314 319 314 307 305 295 145 275 265 260 139 166 179 194 202 228 258 280 339 301 275 253 242 295 269 219 229 127 97 58 54 325 140 121 107 111 109 98 90
328 324 322 320 321 318 317 319 309 302 288 271 130 76 257 176 213 177 185 208 224 252 291 329 290 290 291 283 272 238 236 240 185 130 76 71 27 262 210 121 108 109 104 102 93
325 321 320 320 323 318 319 311 295 278 268 216 197 234 266 110 225 190 194 222 210 230 252 274 265 269 261 254 235 209 239 226 188 203 110 104 305 263 263 114 118 124 125 113 100
324 322 322 322 323 319 321 298 357 346 231 223 259 266 251 220 195 205 212 237 195 222 231 226 243 244 233 233 238 219 228 198 212 181 121 138 141 255 196 120 129 148 126 106 111
324 324 321 323 323 319 332 318 247 186 306 269 321 248 298 108 142 212 205 209 251 242 229 204 225 231 224 220 291 323 317 91 121 65 325 179 189 161 120 133 142 131 121 121 110
322 323 322 324 320 318 308 22 27 334 302 281 263 258 282 285 188 217 192 203 214 226 225 216 229 255 358 352 293 280 271 275 93 112 305 75 21 344 342 146 128 132 135 129 123
320 322 322 323 317 302 328 4 329 347 270 276 224 227 242 226 226 207 188 213 197 225 239 237 193 69 282 238 259 255 302 33 300 144 226 122 130 200 22 6 92 143 145 154 151
320 321 324 330 308 338 327 346 319 4 272 215 188 218 229 217 233 188 196 205 218 245 218 242 112 164 231 262 297 302 228 348 295 282 290 178 89 301 82 147 256 274 171 70 25
314 317 322 325 310 306 327 332 315 267 274 148 177 169 196 209 161 173 194 239 256 247 220 243 125 218 244 44 347 320 339 298 289 283 281 121 110 95 129 215 229 220 114 90 154
310 312 333 296 232 256 300 315 274 235 243 157 142 177 195 228 172 177 200 245 280 274 242 246 144 221 55 85 280 326 283 266 272 270 258 133 255 146 197 217 211 238 85 102 138
307 302 304 304 282 331 320 281 271 249 138 156 170 173 192 209 215 168 198 204 229 224 207 133 189 229 335 208 196 222 250 270 225 249 290 198 77 28 108 147 183 114 119 97 88
307 304 267 244 272 275 299 250 264 269 190 147 179 176 192 189 198 192 194 214 237 247 249 206 174 171 184 264 335 311 337 336 337 336 348 119 100 178 87 114 97 85 89 85 76
306 280 246 236 219 286 275 244 272 329 27 216 178 193 207 180 211 206 211 220 209 237 290 316 147 95 139 356 302 355 357 355 313 285 264 97 101 56 73 70 116 103 76 58 31
317 295 259 127 159 240 253 263 268 344 333 308 217 190 208 188 217 212 201 183 70 356 345 320 109 183 133 266 239 270 334 295 227 309 343 101 92 91 52 49 45 80 68 48 33
277 250 119 131 156 242 237 241 282 335 331 284 285 210 179 190 226 219 179 91 71 217 249 301 272 119 189 217 21 323 39 337 344 297 335 302 85 74 73 58 33 43 38 23 13
263 262 140 156 215 228 242 244 325 284 280 268 286 295 210 203 230 248 88 93 2 321 224 49 331 291 58 45 14 68 6 15 342 360 329 294 94 73 42 66 55 33 27 28 24
260 258 167 205 245 244 235 250 278 269 267 242 267 270 258 203 238 124 94 110 120 32 14 15 251 272 244 153 93 76 62 40 119 280 284 325 115 117 76 43 34 25 21 29 29
273 241 220 201 252 283 293 217 249 219 250 297 302 253 249 230 245 115 108 98 79 75 331 359 354 316 332 177 84 110 54 43 17 344 344 78 114 54 43 25 25 24 33 32 19
249 250 296 215 218 224 247 301 243 247 193 217 254 240 240 227 194 175 136 125 123 136 93 21 279 274 335 27 63 75 68 51 64 39 30 63 72 54 50 24 23 49 31 26 24
286 252 330 273 316 218 193 241 258 254 196 200 247 231 212 210 226 189 136 176 145 175 87 330 206 271 141 130 101 98 86 75 64 7 46 101 78 48 51 21 24 47 29 25 21
250 275 276 294 237 256 229 222 240 326 277 272 265 264 230 214 191 93 97 79 114 129 135 190 159 208 139 142 141 133 69 57 94 57 33 50 48 39 32 34 54 38 36 31 33